Location: Clyde
(45.1830°S, 169.3170°E)
Time: 14:59:12
(UTC+12:00)

ISS - Visible Passes

Search period start: 19 April 2024 00:00
Search period end: 29 April 2024 00:00
Orbit: 412 x 419 km, 51.6° (Epoch: 18 April)

Date Brightness Start Highest point End Pass type
(mag) Time Alt. Az. Time Alt. Az. Time Alt. Az.
19 Apr -3.7 18:42:19 10° WNW 18:45:44 83° NNE 18:48:56 12° ESE visible
19 Apr -1.7 20:19:37 10° WSW 20:21:49 27° SW 20:21:49 27° SW visible
20 Apr -2.6 19:30:35 10° W 19:33:48 37° SSW 19:34:58 28° SSE visible
21 Apr -3.0 18:41:31 10° W 18:44:52 49° SSW 18:48:03 11° SE visible
21 Apr -1.4 20:19:07 10° WSW 20:20:55 22° SW 20:20:55 22° SW visible
22 Apr -2.3 19:30:00 10° WSW 19:33:02 28° S 19:33:55 25° SSE visible
23 Apr -2.4 18:40:48 10° WSW 18:43:55 32° SSW 18:46:51 11° SE visible
23 Apr -1.3 20:18:14 10° SW 20:19:42 20° SW 20:19:42 20° SW visible
24 Apr -2.3 19:29:07 10° WSW 19:32:06 27° S 19:32:35 26° SSE visible
25 Apr -2.2 18:39:53 10° WSW 18:42:53 27° S 18:45:26 12° SE visible
25 Apr -1.3 20:16:56 10° SW 20:18:17 20° SW 20:18:17 20° SW visible
26 Apr -2.6 19:27:50 10° SW 19:30:57 31° SSE 19:31:06 31° SSE visible
27 Apr -2.4 18:38:37 10° SW 18:41:38 28° S 18:43:54 14° ESE visible
27 Apr -1.4 20:15:21 10° WSW 20:16:46 22° SW 20:16:46 22° SW visible
28 Apr -3.3 19:26:11 10° SW 19:29:31 46° SSE 19:29:34 46° SSE visible
